STARLINK-31900, 59942

Orbit data source: Space-Track

STARLINK-31900, 59942 is a payload satellite owned by SpaceX/Seattle (US) in LEO that was launched on Sat, 01 Jun 2024 UTC via an FALCON 9 launch vehicle from the Air Force Eastern Test Range (AFETR). Payload-class satellites include a variety of spacecraft equipped with specific instruments for various scientific and technological missions. These include communications satellites like Starlink; space stations such as the ISS; scientific satellites like the Hubble; Earth observation satellites from companies like Planet Labs, Umbra, and HawkEye 360; GPS; miniature CubeSats for education and research; and military/defense satellites.

Loading next visibility...
Identifier
59942, 2024-106W
Orbit
LEO
Country
Flag of USUS
Related business
Manufacturer
SpaceX/Seattle
Mission
Operational Commercial Communications
Bus & Motor
STARLINK V2M, Unknown motor
Mass
730 kg wet, ~700 kg dry
Launch date (UTC)
2024-06-01 (1 year ago)
Launch vehicle
FALCON 9
Launch site
Air Force Eastern Test Range (AFETR)
Object type
Payload
Rocket body
Debris
Shape & HBR
Box + 2 Pan, 17.7 m
Radar Cross Section
33.884 m², Large (>1 m²)

Expand to show TLE details & history
Last TLE update: 1 day ago

TLE from 1 day ago
0 STARLINK-31900
1 59942U 24106W   25307.73636543  .00001142  00000-0  50988-4 0  9998
2 59942  42.9984 323.5191 0000635 276.2853  83.7927 15.27583040 81266
Epoch: 2025-11-03T17:40Z
TLE epoch observation values (Epoch: 2025-11-03T17:40:21.973Z)
Latitude
0.00005°
Longitude
15.19413°
Altitude
482.768 km
Speed
7.626 km/s
True Right ascension
21h 34m 04s
True Declination
0° 00' 00"
Sunlit
Object was in daylight at epoch
Visualization orbit readout
Latitude
Unknown
Longitude
Unknown
Altitude
Unknown
Speed
Unknown
Apparent Right ascension
Unknown
Apparent Declination
Unknown
Sunlit
N/A
Visualization observer readout
Local Sidereal Time
19:51:08
Azimuth
Unknown
Elevation
Unknown
Doppler factor
Unknown
Orbital elements
Apogee altitude
485.421 km
Perigee altitude
484.55 km
Semi-major axis
6,863.122 km
Eccentricity
0.00006
Inclination
42.9984°
RAAN
323.5191°
Arg. of periapsis
276.2853°
True anomaly
83.79993°
Mean anomaly
83.7927°
Eccentric anomaly
83.79632°
Mean motion
3.81734 °/min
Orbital period
94.31 mins
BSTAR
0.000050988
Loading maneuver chart data...
Computing Atmospheric mass density...
Loading historical data...
Loading historical data...
Loading historical data...
Loading historical data...
Loading historical data...
Loading historical data...
Loading historical data...

Documentation

Showing up to 5 results
|